Weather in Sugash

Russia / Altai Republic     50°33′58″N   84°57′35″E
temp.,
°C
wind,
m/s
gust,
m/s
humid.,
%
clouds,
%
prec.,
mm/h
press.,
hPa
HPBL,
m
17 january, mon
mon1701:00−8se1192100 0.1 102212
04:00−10e119096 0.0 102410
07:00−8sse0191100 0.0 102410
10:00−7se1191100 0.0 102330
13:00−3sw0183100 0.0 101996
16:00−2s1187100 0.0 101890
19:00−5ese1195100 0.0 102110
22:00−5se1196100 0.0 102311
18 january, tue
tue1801:00−6s0098100 0.2 102410
04:00−7sw0198100 0.1 102510
07:00−11s009899 0.2 102810
10:00−12sse119885 0.1 103010
13:00−6w119593 0.2 1026160
16:00−4sw019299 0.0 1024270
19:00−8n1198100 0.1 102610
22:00−9n1197100 0.1 102618
19 january, wed
wed1901:00−8n1197100 1.1 102554
04:00−9n2296100 0.6 102545
07:00−13n2297100 0.7 102719
10:00−10n1295100 0.4 102592
13:00−7nnw2292100 0.9 1023255
16:00−6nnw1294100 0.4 1021231
19:00−10n2197100 0.8 102316
22:00−9n1296100 0.4 102354
20 january, thu
thu2001:00−9nnw1196100 0.9 102340
04:00−12ne019894 0.3 102510
07:00−13ne0098100 0.3 102610
10:00−11nnw0096100 0.1 102632
13:00−7wsw0092100 0.2 1024182
16:00−5nw0094100 0.5 1022186
19:00−6nnw0197100 1.2 102325
22:00−7nnw0197100 1.3 102432
21 january, fri
fri2101:00−13ne119894 1.5 10289
04:00−15nne119998 0.1 102910
07:00−14n119787 0.2 102911
10:00−15nne119876 0.1 102916
13:00−9nnw119195 0.1 1024219
16:00−7nnw1289100 0.0 1022304
19:00−15n2299100 0.1 102714
22:00−17nne219895 0.1 102911